Hlavní strana
METAR-TAF:

METAR-TAF

Letiště :

Vidalia Regional Airport

Vidalia, Georgie, Spojené státy americké

zeměpisná šířka: 32-11-33N, zeměpisná délka: 082-22-19W, výška: 84 m

Aktuální stav počasí

Zpráva byla vytvořena před 30 minutami, v 07:35 UTC
Severovýchodní vítr 6 kt
Teplota 10°C
Vlhkost vzduchu 82%
Tlak 1026 hPa
Viditelnost: 16.1 km
Polojasno ve výšce 7000 ft

METAR: KVDI 080735Z AUTO 05006KT 10SM SCT070 10/07 A3030 RMK AO2

Čas: 03:05 (08:05 UTC)


TAF: chybějící

Stav a předpovědi počasí z více než 4 000 letišť (zprávy METAR a TAF).

Červené a žluté tečky na mapě představují dostupné meteorologické stanice.

Když kurzor umístíte na tečku, zobrazí se název stanice.

Pak kliknutím zobrazíte stav a předpověď počasí.

Chcete-li změnit mapu, kliknutím na zelené tlačítko se znaménkem +mapu přiblížíte, kliknutím na zelené tlačítko se znaménkem – mapu oddálíte a kliknutím na zelené šipky přejdete na sousední mapy.


METAR-TAF: